Terug naar catalogus

SCOUT G-1 DEB

ActiefPO
NORAD 29362·DEBRIS·🇺🇸 United States

Gelanceerd Apr 26, 1988 vanaf Vandenberg Space Force Base

Loading…

Volgende Passages (komende 24 uur)

TLE

VersSource: Space-Track

Epoch: Sep 14, 2026, 02:29 UTC

1 29362U 88033J   26257.10361249  .00000073  00000-0  11553-3 0  9990
2 29362  90.3067  19.6971 0210882  60.9431 110.6294 13.32285636631200

Volg SCOUT G-1 DEB in realtime met AllMySat

Download on the App Store